Location: Bon Acre
(42.6442°N, 73.5758°W)
Time: 17:41:32
(UTC+00:00)

COSMOS 2455 - Pass Details

Date: 14 December 2025
Orbit: 898 x 910 km, 67.1° (Epoch: 22 January)

Event Time Altitude Azimuth Distance (km) Brightness Sun altitude
Rises 22:40:49 0° 187° (S) 3,512 6.3 -14.0°
Reaches altitude 10° 22:43:25 10° 181° (S) 2,577 5.5 -14.5°
Maximum altitude 22:49:01 43° 112° (ESE) 1,252 3.2 -15.5°
Enters shadow 22:52:24 22° 54° (NE) 1,858 3.9 -16.1°
